Tracking 18793 objects as of 25-September-2017
HD Live streaming from Space Station
objects crossing your sky now

COSMOS 1629

Track COSMOS 1629 now!
COSMOS 1629 is classified as:


NORAD ID: 15574
Int'l Code: 1985-016A
Perigee: 35,771.4 km
Apogee: 35,824.2 km
Inclination: 14.2 °
Period: 1,436.3 minutes
Semi major axis: 42168 km
RCS: 1.2589 m2 (large)
Launch date: February 21, 1985
Source: Commonwealth of Independent States (former USSR) (CIS)
Launch site: TYURATAM MISSILE AND SPACE COMPLEX (TTMTR)
aabbcc
Your satellite tracking list
Your tracking list is empty





NASA's NSSDC Master Catalog

Two Line Element Set (TLE):
1 15574U 85016A   17267.39414109 +.00000040 +00000-0 +00000-0 0  9990
2 15574 014.1776 342.9556 0006250 205.0844 141.8070 01.00257333118487
Source of the keplerian elements: AFSPC